Погода в Балливоне

Ирландия     53°06′55″N   9°08′57″W
темп.,
°C
ветер,
м/с
пор.,
м/с
влажн.,
%
обл.,
%
осадки,
мм/ч
давл.,
гПа
погр.,
м
13 мая, чт
чт1301:00+6с11905 0.5 100945
04:00+5св11935 0.0 100929
07:00+6юв00925 0.0 101035
10:00+10з338068 0.0 1011625
13:00+11зсз667312 0.1 1011871
16:00+11зсз777548 0.0 1011714
19:00+10зсз78815 0.0 1011518
22:00+8зсз37940 0.0 1012233
14 мая, пт
пт1401:00+7зсз359425 0.0 1011170
04:00+7зюз239549 0.0 101096
07:00+8юз239281 0.1 1010191
10:00+10ю338177 0.1 1008651
13:00+11вюв1372100 0.4 1006933
16:00+11юз3582100 1.1 1004594
19:00+10ю4684100 2.1 1002666
22:00+7юв41091100 0.4 1001528
15 мая, сб
сб1501:00+6вюв5894100 1.7 9991000
04:00+6в5895100 1.8 997451
07:00+6в4895100 2.1 996424
10:00+7в449265 0.0 996365
13:00+11св127349 0.1 995844
16:00+12ссв2165100 0.2 9941010
19:00+11св5679100 0.6 993556
22:00+7св489598 0.0 994250
16 мая, вс
вс1601:00+6ссв359613 0.0 995107
04:00+7с3596100 0.1 996238
07:00+8с2594100 0.3 997298
10:00+10сз3583100 0.3 998632
13:00+11ссз367546 0.5 1000771
16:00+10с589198 1.3 1001537
19:00+10с698881 3.0 1003740
22:00+8с4109270 0.4 1006403
17 мая, пн
пн1701:00+7с489258 0.4 1008301
04:00+6сз4788100 0.0 1009258
07:00+7ссз478727 0.1 1011436
10:00+9сз796814 0.1 10131323
13:00+10зсз786432 0.1 10141376
16:00+10зсз79647 0.1 10161416
19:00+9зсз69695 0.1 10161206
22:00+7з48815 0.0 1017341